Home   Weather   Grieskirchen   Past weeks

Flag for Austria Past Weather in Grieskirchen, Upper Austria, Austria — Yesterday and Last 2 Weeks

Now
23 °F

Sunny.


Feels Like: 13 °F
Forecast: 5 / 19 °F
Wind: 9 mph from East

Location: Linz / Hoersching-Flughafen

Current Time: Jan 19, 2017 at 1:55:04 pm

Latest Report: Jan 19, 2017 at 1:20 pm


Visibility: 4 mi

Pressure: 30.54 "Hg

Humidity: 68%

Dew Point: 14 °F

Location of GrieskirchenLocation

Past Weather in Grieskirchen — Graph

°F

Grieskirchen Temperature Yesterday

Maximum temperature yesterday: 27 °F (at 12:20 am)
Minimum temperature yesterday: 18 °F (at 10:50 pm)
Average temperature yesterday: 25 °F

High & Low Weather Summary for the Past Weeks

 TemperatureHumidityPressure
High39 °F (Jan 12, 11:50 am)100% (Jan 5, 4:20 am)30.66 "Hg (Jan 5, 4:20 am)
Low3 °F (Jan 7, 6:50 am)52% (Jan 13, 12:50 pm)29.39 "Hg (Jan 13, 3:50 am)
Average25 °F82%30.16 "Hg
* Reported Jan 4 12:20 pm — Jan 19 12:20 pm, Grieskirchen, Weather by CustomWeather, © 2017

Note: Actual official high and low records may vary slightly from our data, if they occured in-between our weather recording intervals... More about our weather records

Advertising

Grieskirchen Weather History for the Previous 24 Hours

Scroll right to see more
 ConditionsComfort  
Time TempWeatherWind HumidityBarometerVisibility
12:20 pm
Thu, Jan 19
21 °FSunny.8 mph74%30.57 "Hg4 mi
11:50 am19 °FSunny.10 mph79%30.57 "Hg3 mi
11:20 am19 °FSunny.10 mph79%30.57 "Hg3 mi
10:50 am18 °FLight freezing rain. Sunny.8 mph86%30.60 "Hg3 mi
10:20 am18 °FLight freezing rain. Sunny.10 mph79%30.60 "Hg3 mi
9:50 am18 °FLight freezing rain. Sunny.12 mph79%30.60 "Hg3 mi
9:20 am16 °FLight freezing rain. Sunny.13 mph86%30.60 "Hg2 mi
8:50 am16 °FLight freezing rain. Sunny.9 mph86%30.57 "Hg2 mi
8:20 am16 °FLight freezing rain. Passing clouds.8 mph86%30.57 "Hg2 mi
7:50 am14 °FLight freezing rain. Passing clouds.12 mph92%30.57 "Hg2 mi
7:20 am16 °FLight freezing rain. Passing clouds.10 mph86%30.57 "Hg3 mi
6:50 am16 °FLight freezing rain. Clear.9 mph86%30.57 "Hg3 mi
6:20 am16 °FLight freezing rain. Clear.10 mph86%30.57 "Hg3 mi
5:50 am16 °FLight freezing rain. Clear.10 mph86%30.57 "Hg3 mi
5:20 am16 °FLight freezing rain. Clear.12 mph93%30.57 "Hg3 mi
4:50 am18 °FLight freezing rain. Overcast.13 mph86%30.57 "Hg3 mi
4:20 am18 °FLight freezing rain. Overcast.13 mph86%30.57 "Hg3 mi
3:50 am18 °FLight freezing rain. Overcast.12 mph86%30.57 "Hg3 mi
3:20 am18 °FLight freezing rain. Overcast.12 mph86%30.57 "Hg4 mi
2:50 am18 °FCold.13 mph86%30.57 "Hg4 mi
2:20 am18 °FPassing clouds.12 mph79%30.57 "Hg5 mi
1:50 am18 °FCold.12 mph79%30.57 "Hg5 mi
1:20 am18 °FCold.9 mph86%30.57 "Hg5 mi
12:50 am18 °FCold.7 mph79%30.57 "Hg5 mi
12:20 am19 °FCold.5 mph79%30.57 "Hg5 mi
11:50 pm
Wed, Jan 18
19 °FCold.3 mph79%30.57 "Hg5 mi
11:20 pm18 °FCold.8 mph79%30.57 "Hg5 mi
10:50 pm18 °FPassing clouds.7 mph86%30.57 "Hg5 mi
10:20 pm19 °FCold.7 mph79%30.57 "Hg5 mi
9:50 pm19 °FCold.6 mph79%30.57 "Hg5 mi
9:20 pm21 °FPassing clouds.6 mph80%30.60 "Hg5 mi
8:50 pm21 °FCold.6 mph80%30.60 "Hg5 mi
8:20 pm23 °FPassing clouds.8 mph74%30.57 "Hg6 mi
7:50 pm25 °FPassing clouds.8 mph69%30.57 "HgN/A
7:20 pm27 °FPassing clouds.8 mph69%30.60 "HgN/A
6:50 pm27 °FPassing clouds.9 mph69%30.57 "HgN/A
6:20 pm27 °FOvercast.8 mph69%30.57 "HgN/A
5:50 pm27 °FPassing clouds.8 mph69%30.57 "HgN/A
5:20 pm27 °FPassing clouds.8 mph74%30.57 "HgN/A
4:50 pm27 °FPassing clouds.7 mph74%30.57 "Hg5 mi
4:20 pm27 °FPartly sunny.9 mph69%30.57 "HgN/A
3:50 pm27 °FPartly sunny.9 mph69%30.57 "HgN/A
3:20 pm27 °FPartly sunny.8 mph74%30.57 "HgN/A
2:50 pm27 °FPartly sunny.8 mph74%30.57 "HgN/A
2:20 pm27 °FPartly sunny.7 mph74%30.57 "HgN/A
1:50 pm27 °FPartly sunny.12 mph69%30.57 "HgN/A
1:20 pm27 °FPartly sunny.12 mph69%30.57 "HgN/A
Weather by CustomWeather, © 2017

See weather overviewHow to use our weather pages